1515236400.33,23184,9.69,73020.8,4.45,-27.35,-27.51,0,*76
1515236401.55,23185,9.69,73022.5,4.45,-27.19,-27.51,0,*79
1515236402.77,23186,9.69,73020.0,4.45,-27.23,-27.55,0,*77
1515236404.04,23187,9.69,73024.5,4.47,-27.19,-27.45,0,*7C
1515236405.26,23188,9.69,73020.3,4.43,-27.07,-27.51,0,*7D
1515236406.5,23189,9.69,73022.3,4.43,-27.19,-27.51,0,*73
1515236407.75,23190,9.69,73022.3,4.43,-27.39,-27.77,0,*7D
1515236409.0,23191,9.69,73020.0,4.43,-27.23,-27.55,0,*77
1515236410.25,23192,9.69,73026.3,4.43,-27.07,-27.23,0,*73
1515236411.52,23193,9.69,73022.8,4.43,-26.93,-27.35,0,*79
1515236412.77,23194,9.69,73020.3,4.43,-27.23,-27.51,0,*76
1515236413.99,23195,9.69,73018.8,4.41,-27.07,-27.45,0,*76
1515236415.24,23196,9.69,73020.8,4.43,-26.71,-27.07,0,*71
1515236416.49,23197,9.69,73018.0,4.43,-27.03,-27.23,0,*72
1515236417.71,23198,9.69,73024.5,4.41,-26.93,-27.13,0,*74
1515236418.96,23199,9.69,73024.3,4.43,-26.55,-27.07,0,*78
1515236420.2,23200,9.69,73026.0,4.43,-27.19,-27.51,0,*71
1515236421.45,23201,9.69,73020.5,4.43,-27.07,-27.35,0,*7D
1515236422.7,23202,9.69,73024.0,4.43,-27.07,-27.23,0,*79
1515236423.94,23203,9.69,73022.5,4.41,-26.97,-27.29,0,*78
1515236425.13,23204,9.69,73026.3,4.41,-27.13,-27.55,0,*79
1515236426.33,23205,9.69,73020.3,4.41,-27.13,-27.55,0,*78
1515236427.6,23206,9.69,73022.3,4.43,-26.71,-26.93,0,*77
1515236428.85,23207,9.69,73022.0,4.43,-27.07,-27.23,0,*7C
1515236430.08,23208,9.69,73020.8,4.43,-26.49,-26.87,0,*77
1515236431.3,23209,9.69,73022.0,4.43,-26.61,-27.03,0,*71
1515236432.58,23210,9.69,73022.0,4.43,-26.77,-27.19,0,*75
1515236433.83,23211,9.69,73022.8,4.41,-26.81,-27.23,0,*76
1515236435.09,23212,9.69,73026.3,4.43,-26.77,-27.07,0,*78
1515236436.31,23213,9.69,73022.0,4.41,-26.61,-26.81,0,*73
1515236437.54,23214,9.69,73024.8,4.43,-26.03,-26.23,0,*7A
1515236438.79,23215,9.69,73022.0,4.43,-25.71,-25.87,0,*70
1515236440.02,23216,9.69,73022.0,4.45,-25.75,-26.07,0,*7A
1515236441.27,23217,9.69,73018.0,4.43,-25.55,-25.91,0,*73
1515236442.5,23218,9.69,73022.0,4.45,-25.35,-25.55,0,*74
1515236443.72,23219,9.69,73020.5,4.47,-25.19,-25.35,0,*7F
1515236444.92,23220,9.69,73020.0,4.49,-25.49,-25.87,0,*77
1515236446.17,23221,9.69,73018.0,4.51,-25.49,-25.81,0,*79
1515236447.42,23222,9.69,73020.0,4.51,-25.29,-25.61,0,*72
1515236448.7,23223,9.69,73020.3,4.51,-25.45,-25.75,0,*7C
1515236449.9,23224,9.69,73020.3,4.53,-25.49,-25.91,0,*7F
1515236451.15,23225,9.69,73018.8,4.55,-25.55,-25.91,0,*75
1515236452.4,23226,9.69,73016.0,4.55,-25.45,-25.87,0,*70
1515236453.62,23227,9.69,73020.8,4.55,-25.61,-25.91,0,*70
1515236454.87,23228,9.69,73018.0,4.55,-25.75,-26.07,0,*76
1515236456.12,23229,9.69,73020.0,4.55,-25.91,-26.17,0,*7C
1515236457.38,23230,9.69,73016.3,4.55,-25.75,-26.07,0,*7F
1515236458.61,23231,9.69,73018.0,4.57,-25.71,-26.03,0,*7C
1515236459.84,23232,9.69,73020.3,4.57,-25.87,-26.13,0,*77
1515236461.07,23233,9.69,73018.5,4.57,-25.81,-26.03,0,*71
1515236462.3,23234,9.69,73018.5,4.61,-25.65,-25.97,0,*77
1515236463.56,23235,9.69,73018.5,4.57,-25.55,-25.97,0,*70
1515236464.83,23236,9.69,73022.5,4.63,-25.81,-26.13,0,*72
1515236466.11,23237,9.69,73020.5,4.63,-25.81,-25.97,0,*7C
1515236467.34,23238,9.69,73022.0,4.63,-25.65,-25.91,0,*7F
1515236468.6,23239,9.69,73018.3,4.63,-25.65,-25.97,0,*78
1515236469.79,23240,9.69,73016.8,4.65,-25.91,-26.07,0,*71
1515236471.02,23241,9.69,73020.5,4.65,-25.97,-26.23,0,*70
1515236472.3,23242,9.69,73016.5,4.63,-25.97,-26.29,0,*7F
1515236473.53,23243,9.69,73018.5,4.67,-26.07,-26.39,0,*71
1515236474.76,23244,9.69,73018.5,4.69,-25.87,-26.17,0,*7F
1515236475.99,23245,9.69,73016.3,4.67,-25.87,-26.03,0,*75
1515236477.18,23246,9.69,73016.3,4.65,-25.91,-26.23,0,*71
1515236478.4,23247,9.69,73018.3,4.65,-25.97,-26.23,0,*76
1515236479.66,23248,9.69,73016.5,4.69,-25.81,-25.97,0,*7E
1515236480.91,23249,9.69,73016.0,4.67,-25.75,-26.07,0,*70
1515236482.19,23250,9.69,73018.0,4.67,-25.71,-25.81,0,*71
1515236483.42,23251,9.69,73016.0,4.69,-25.55,-25.87,0,*7E
1515236484.65,23252,9.69,73014.8,4.69,-25.65,-25.97,0,*7F
1515236485.9,23253,9.69,73020.3,4.73,-25.45,-25.75,0,*7B
1515236487.13,23254,9.69,73018.0,4.73,-25.49,-25.81,0,*7B
1515236488.33,23255,9.69,73018.8,4.73,-25.65,-25.91,0,*75
1515236489.55,23256,9.69,73016.5,4.73,-25.65,-25.81,0,*77
1515236490.78,23257,9.69,73018.8,4.73,-25.29,-25.61,0,*70
1515236492.01,23258,9.69,73016.8,4.73,-25.29,-25.61,0,*7F
1515236493.21,23259,9.69,73016.8,4.73,-25.35,-25.61,0,*73
1515236494.43,23260,9.69,73020.0,4.73,-25.13,-25.45,0,*7B
1515236495.68,23261,9.69,73016.3,4.75,-25.65,-25.81,0,*75
1515236496.91,23262,9.69,73016.0,4.75,-25.65,-25.91,0,*77
1515236498.11,23263,9.69,73016.8,4.77,-25.61,-25.91,0,*70
1515236499.34,23264,9.69,73018.0,4.77,-25.91,-26.29,0,*78
1515236500.59,23265,9.69,73018.5,4.75,-25.91,-26.13,0,*72
1515236501.81,23266,9.69,73018.8,4.77,-26.07,-26.55,0,*7D
1515236503.04,23267,9.69,73018.8,4.77,-25.75,-25.87,0,*76
1515236504.32,23268,9.69,73022.3,4.75,-26.13,-26.33,0,*74
1515236505.56,23269,9.69,73018.8,4.77,-26.03,-26.13,0,*74
1515236506.79,23270,9.69,73016.3,4.77,-25.71,-25.91,0,*73
1515236508.02,23271,9.69,73020.0,4.77,-25.91,-26.29,0,*7C
1515236509.24,23272,9.69,73020.8,4.77,-26.23,-26.55,0,*7E
1515236510.49,23273,9.69,73018.0,4.77,-25.45,-25.75,0,*7D
1515236511.72,23274,9.69,73022.3,4.77,-25.75,-26.03,0,*7B
1515236512.96,23275,9.69,73018.5,4.77,-25.75,-26.03,0,*7A
1515236514.19,23276,9.69,73022.0,4.77,-25.91,-26.13,0,*72
1515236515.44,23277,9.69,73022.5,4.79,-25.81,-26.07,0,*79
1515236516.66,23278,9.69,73020.3,4.77,-26.45,-26.55,0,*74
1515236517.89,23279,9.69,73016.8,4.77,-26.29,-26.61,0,*78
1515236519.12,23280,9.69,73018.5,4.77,-26.33,-26.45,0,*73
1515236520.33,23281,9.69,73020.5,4.77,-26.07,-26.23,0,*75
1515236521.56,23282,9.69,73018.5,4.77,-25.75,-26.03,0,*72
1515236522.82,23283,9.69,73022.3,4.77,-25.55,-25.75,0,*73
1515236524.05,23284,9.69,73022.0,4.81,-25.71,-25.87,0,*76
1515236525.28,23285,9.69,73016.5,4.81,-25.65,-25.81,0,*74
1515236526.51,23286,9.69,73022.5,4.81,-25.81,-26.03,0,*74
1515236527.76,23287,9.69,73022.5,4.81,-25.97,-26.17,0,*77
1515236528.96,23288,9.69,73022.8,4.81,-26.03,-26.23,0,*71
1515236530.22,23289,9.69,73018.3,4.79,-26.33,-26.65,0,*76
1515236531.43,23290,9.69,73022.8,4.81,-26.07,-26.39,0,*77
1515236532.66,23291,9.69,73022.0,4.79,-26.49,-26.65,0,*72
1515236533.89,23292,9.69,73020.8,4.79,-26.49,-26.65,0,*71
1515236535.14,23293,9.69,73020.5,4.79,-25.97,-26.23,0,*72
1515236536.36,23294,9.69,73020.3,4.81,-25.97,-26.23,0,*72
1515236537.61,23295,9.69,73022.5,4.79,-25.97,-26.23,0,*74
1515236538.84,23296,9.69,73020.3,4.81,-25.97,-26.07,0,*76
1515236540.1,23297,9.69,73020.3,4.81,-25.55,-25.81,0,*74
1515236541.33,23298,9.69,73020.8,4.81,-25.39,-25.71,0,*7E
1515236542.53,23299,9.69,73020.0,4.81,-25.87,-26.07,0,*78
1515236543.79,23300,9.69,73022.3,4.81,-25.71,-25.97,0,*7A
1515236545.04,23301,9.69,73020.8,4.81,-25.81,-25.97,0,*74
1515236546.27,23302,9.69,73016.5,4.81,-25.81,-26.07,0,*7D
1515236547.52,23303,9.69,73022.8,4.85,-25.97,-26.29,0,*73
1515236548.76,23304,9.69,73022.3,4.85,-26.03,-26.29,0,*7A
1515236549.98,23305,9.69,73020.3,4.85,-25.91,-26.13,0,*7A
1515236551.26,23306,9.69,73020.0,4.87,-25.81,-25.97,0,*75
1515236552.48,23307,9.69,73022.0,4.85,-25.75,-25.91,0,*7B
1515236553.71,23308,9.69,73020.0,4.85,-25.91,-26.17,0,*73
1515236554.96,23309,9.69,73020.5,4.85,-25.97,-26.29,0,*79
1515236556.18,23310,9.69,73022.8,4.85,-25.91,-26.17,0,*7A
1515236557.46,23311,9.69,73022.8,4.87,-25.97,-26.17,0,*7F
1515236558.72,23312,9.69,73022.8,4.87,-25.65,-25.97,0,*7A
1515236559.94,23313,9.69,73020.8,4.87,-25.65,-25.91,0,*7D
1515236561.17,23314,9.69,73020.0,4.85,-25.65,-25.75,0,*72
1515236562.42,23315,9.69,73020.0,4.87,-25.61,-25.81,0,*7E
1515236563.68,23316,9.69,73020.0,4.87,-25.61,-25.75,0,*76
1515236564.93,23317,9.69,73022.3,4.87,-25.91,-26.29,0,*72
1515236566.12,23318,9.69,73020.8,4.89,-25.87,-26.23,0,*7E
1515236567.32,23319,9.69,73020.8,4.89,-25.91,-26.23,0,*78
1515236568.54,23320,9.69,73022.3,4.91,-25.65,-25.87,0,*7D
1515236569.76,23321,9.69,73022.5,4.89,-25.71,-25.91,0,*77
1515236571.01,23322,9.69,73022.3,4.91,-25.71,-25.91,0,*7D
1515236572.26,23323,9.69,73022.0,4.91,-25.71,-25.91,0,*7C
1515236573.52,23324,9.69,73022.3,4.91,-25.71,-25.87,0,*7C
1515236574.77,23325,9.69,73020.3,4.91,-25.49,-25.71,0,*7F
1515236576.0,23326,9.69,73022.8,4.91,-25.39,-25.65,0,*7E
1515236577.25,23327,9.69,73026.0,4.91,-25.65,-25.81,0,*7C
1515236578.5,23328,9.69,73020.3,4.91,-25.65,-25.81,0,*73
1515236579.72,23329,9.69,73024.3,4.93,-25.65,-25.87,0,*76
1515236581.02,23330,9.69,73020.8,4.93,-25.55,-25.71,0,*74
1515236582.25,23331,9.69,73022.3,4.95,-25.61,-25.75,0,*70
1515236583.48,23332,9.69,73022.8,4.95,-25.87,-26.13,0,*78
1515236584.71,23333,9.69,73022.5,4.93,-26.23,-26.39,0,*7A
1515236585.94,23334,9.69,73020.0,4.93,-26.23,-26.39,0,*7D
1515236587.18,23335,9.69,73024.5,4.93,-25.87,-26.07,0,*7C
1515236588.43,23336,9.69,73024.8,4.93,-25.91,-26.17,0,*79
1515236589.66,23337,9.69,73022.3,4.95,-26.13,-26.45,0,*70
1515236590.89,23338,9.69,73026.0,4.95,-26.77,-27.13,0,*7F
1515236592.15,23339,9.69,73020.5,4.93,-26.71,-27.07,0,*7B
1515236593.42,23340,9.69,73022.8,4.93,-26.71,-26.93,0,*79
1515236594.66,23341,9.69,73022.8,4.93,-26.65,-26.87,0,*78
1515236595.92,23342,9.69,73024.5,4.93,-26.17,-26.39,0,*7B
1515236597.14,23343,9.69,73020.5,4.93,-26.23,-26.49,0,*7A
1515236598.39,23344,9.69,73020.5,4.91,-26.33,-26.49,0,*7E
1515236599.65,23345,9.69,73022.5,4.93,-26.17,-26.49,0,*7B
1515236600.91,23346,9.69,73018.3,4.91,-26.03,-26.33,0,*72
1515236602.11,23347,9.69,73022.5,4.89,-26.07,-26.39,0,*74
1515236603.38,23348,9.69,73024.3,4.93,-26.33,-26.39,0,*77
1515236604.64,23349,9.69,73020.8,4.91,-26.03,-26.33,0,*7D
1515236605.85,23350,9.69,73022.3,4.91,-25.91,-26.23,0,*7C
1515236607.1,23351,9.69,73020.0,4.91,-25.81,-26.07,0,*7A
1515236608.32,23352,9.69,73022.3,4.91,-25.87,-26.23,0,*79
1515236609.58,23353,9.69,73020.0,4.91,-26.33,-26.49,0,*78
1515236610.82,23354,9.69,73022.3,4.91,-25.91,-26.17,0,*7F
1515236612.07,23355,9.69,73022.0,4.91,-25.81,-26.03,0,*7A
1515236613.32,23356,9.69,73022.8,4.91,-25.91,-26.17,0,*7D
1515236614.57,23357,9.69,73026.3,4.93,-26.55,-26.87,0,*7C
1515236615.82,23358,9.69,73022.3,4.93,-26.39,-26.55,0,*76
1515236617.08,23359,9.69,73022.5,4.93,-26.33,-26.49,0,*70
1515236618.33,23360,9.69,73024.3,4.91,-25.87,-26.17,0,*7F
1515236619.58,23361,9.69,73026.8,4.91,-26.49,-26.55,0,*79
1515236620.83,23362,9.69,73020.5,4.91,-26.39,-26.55,0,*7D
1515236622.05,23363,9.69,73022.5,4.91,-26.65,-26.87,0,*7A
1515236623.32,23364,9.69,73024.8,4.91,-26.55,-26.71,0,*77
1515236624.59,23365,9.69,73020.8,4.91,-26.71,-26.81,0,*7F
1515236625.81,23366,9.69,73026.0,4.89,-26.55,-26.61,0,*7D
1515236627.06,23367,9.69,73024.0,4.91,-26.49,-26.71,0,*79
1515236628.25,23368,9.69,73022.3,4.89,-26.45,-26.61,0,*72
1515236629.48,23369,9.69,73022.0,4.89,-26.07,-26.29,0,*79
1515236630.7,23370,9.69,73024.3,4.89,-26.39,-26.71,0,*71
1515236631.92,23371,9.69,73022.5,4.89,-26.29,-26.61,0,*70
1515236633.15,23372,9.69,73020.0,4.89,-26.77,-27.29,0,*75
1515236634.37,23373,9.69,73022.5,4.89,-27.23,-27.55,0,*7F
1515236635.6,23374,9.69,73020.0,4.87,-27.29,-27.67,0,*7D
1515236636.85,23375,9.69,73022.3,4.87,-27.35,-27.67,0,*71
1515236638.09,23376,9.69,73020.8,4.85,-26.77,-27.03,0,*75
1515236639.31,23377,9.69,73020.8,4.85,-25.91,-26.29,0,*76
1515236640.54,23378,9.69,73022.8,4.85,-26.77,-27.03,0,*7B
1515236641.8,23379,9.69,73020.5,4.87,-26.49,-26.81,0,*7E
1515236643.03,23380,9.69,73022.0,4.85,-26.65,-26.97,0,*73
1515236644.26,23381,9.69,73024.0,4.85,-26.93,-27.29,0,*7F
1515236645.51,23382,9.69,73022.8,4.85,-27.19,-27.61,0,*73
1515236646.73,23383,9.69,73022.5,4.85,-27.13,-27.61,0,*78
1515236647.96,23384,9.69,73022.8,4.81,-27.07,-27.39,0,*73
1515236649.21,23385,9.69,73022.0,4.79,-26.55,-26.87,0,*77
1515236650.46,23386,9.69,73020.3,4.79,-26.17,-26.23,0,*7C
1515236651.67,23387,9.69,73022.3,4.81,-25.49,-25.65,0,*73
1515236652.9,23388,9.69,73020.3,4.85,-25.29,-25.61,0,*7A
1515236654.1,23389,9.69,73022.8,4.85,-25.35,-25.65,0,*72
1515236655.33,23390,9.69,73022.8,4.87,-25.49,-25.65,0,*73
1515236656.58,23391,9.69,73020.8,4.87,-25.45,-25.65,0,*7E
1515236657.83,23392,9.69,73022.5,4.87,-25.61,-25.75,0,*7A
1515236659.06,23393,9.69,73020.0,4.87,-25.35,-25.61,0,*7F
1515236660.29,23394,9.69,73022.8,4.87,-25.35,-25.61,0,*78
1515236661.55,23395,9.69,73022.5,4.89,-25.71,-25.97,0,*7E
1515236662.77,23396,9.69,73022.0,4.89,-26.45,-26.71,0,*72
1515236663.99,23397,9.69,73016.8,4.89,-26.39,-26.71,0,*78
1515236665.2,23398,9.69,73020.0,4.89,-26.55,-26.87,0,*74
1515236666.4,23399,9.69,73018.8,4.89,-26.49,-26.87,0,*78
1515236667.63,23400,9.69,73022.0,4.91,-26.65,-26.87,0,*78
1515236668.88,23401,9.69,73020.8,4.91,-26.65,-26.71,0,*70
1515236670.1,23402,9.69,73020.3,4.89,-26.87,-27.23,0,*70
1515236671.35,23403,9.69,73022.5,4.91,-27.03,-27.35,0,*72
1515236672.58,23404,9.69,73020.3,4.89,-27.07,-27.39,0,*74
1515236673.83,23405,9.69,73018.8,4.89,-26.97,-27.39,0,*7D
1515236675.11,23406,9.69,73020.8,4.87,-26.81,-27.19,0,*75
1515236676.37,23407,9.69,73022.0,4.87,-26.81,-27.03,0,*7F
1515236677.61,23408,9.69,73026.0,4.87,-27.03,-27.45,0,*79
1515236678.87,23409,9.69,73022.0,4.87,-27.03,-27.35,0,*7F
1515236680.12,23410,9.69,73020.5,4.87,-26.65,-26.93,0,*7B
1515236681.39,23411,9.75,73026.8,4.87,-26.81,-27.29,0,*70
1515236682.61,23412,9.69,73022.3,4.85,-26.61,-26.93,0,*7F
1515236683.87,23413,9.69,73020.8,4.87,-26.77,-27.03,0,*73
1515236685.09,23414,9.69,73022.8,4.85,-26.61,-26.93,0,*79
1515236686.32,23415,9.69,73020.3,4.85,-26.93,-27.29,0,*75
1515236687.58,23416,9.69,73018.5,4.85,-26.81,-26.97,0,*71
1515236688.81,23417,9.69,73022.3,4.85,-26.65,-26.97,0,*7A
1515236690.04,23418,9.69,73022.8,4.85,-26.49,-26.77,0,*75
1515236691.27,23419,9.69,73020.3,4.85,-26.65,-26.93,0,*70
1515236692.55,23420,9.69,73022.0,4.87,-26.93,-27.19,0,*72
1515236693.74,23421,9.69,73024.3,4.85,-27.13,-27.51,0,*74
1515236694.96,23422,9.69,73024.3,4.85,-27.03,-27.45,0,*73
1515236696.22,23423,9.69,73022.8,4.85,-26.93,-27.35,0,*7D
1515236697.5,23424,9.69,73024.8,4.79,-26.97,-27.35,0,*7D
1515236698.73,23425,9.69,73026.0,4.79,-27.03,-27.55,0,*76
1515236699.93,23426,9.69,73024.8,4.81,-26.07,-26.49,0,*7B
1515236701.18,23427,9.69,73022.3,4.81,-26.81,-27.23,0,*79
1515236702.43,23428,9.75,73026.0,4.79,-26.49,-26.71,0,*73
1515236703.65,23429,9.69,73024.3,4.81,-26.23,-26.55,0,*7F
1515236704.93,23430,9.69,73026.0,4.79,-26.97,-27.35,0,*78
1515236706.16,23431,9.69,73024.0,4.79,-27.51,-27.89,0,*75
1515236707.39,23432,9.69,73024.5,4.79,-27.03,-27.51,0,*74
1515236708.61,23433,9.69,73024.0,4.79,-27.03,-27.51,0,*75
1515236709.86,23434,9.69,73020.8,4.81,-26.55,-26.81,0,*7B
1515236711.08,23435,9.69,73022.5,4.81,-26.87,-27.23,0,*7C
1515236712.36,23436,9.69,73020.3,4.79,-28.59,-28.91,0,*73
1515236713.61,23437,9.69,73022.3,4.79,-28.59,-29.07,0,*7C
1515236714.86,23438,9.69,73020.8,4.75,-27.77,-28.09,0,*73
1515236716.09,23439,9.69,73020.8,4.77,-27.71,-28.09,0,*76
1515236717.35,23440,9.69,73020.8,4.77,-27.61,-28.05,0,*75
1515236718.63,23441,9.69,73020.8,4.75,-27.45,-27.83,0,*71
1515236719.87,23442,9.69,73016.8,4.73,-27.19,-27.61,0,*71
1515236721.13,23443,9.69,73022.8,4.73,-27.61,-27.99,0,*78
1515236722.38,23444,9.69,73022.3,4.73,-27.19,-27.61,0,*77
1515236723.61,23445,9.69,73022.5,4.73,-27.07,-27.35,0,*78
1515236724.86,23446,9.69,73022.8,4.73,-27.45,-27.83,0,*70
1515236726.11,23447,9.69,73022.5,4.73,-27.45,-27.83,0,*71
1515236727.31,23448,9.69,73022.5,4.73,-27.13,-27.67,0,*77
1515236728.53,23449,9.69,73024.8,4.73,-27.45,-27.93,0,*7E
1515236729.73,23450,9.69,73018.5,4.73,-27.13,-27.51,0,*7B
1515236730.98,23451,9.69,73022.3,4.73,-26.93,-27.19,0,*7F
1515236732.21,23452,9.69,73020.8,4.73,-26.93,-27.13,0,*76
1515236733.43,23453,9.69,73022.5,4.73,-26.29,-26.65,0,*76
1515236734.66,23454,9.69,73016.8,4.73,-26.65,-26.97,0,*74
1515236735.86,23455,9.69,73022.8,4.73,-26.49,-26.65,0,*76
1515236737.09,23456,9.69,73022.3,4.73,-26.17,-26.61,0,*7A
1515236738.31,23457,9.69,73022.5,4.73,-26.13,-26.45,0,*79
1515236739.54,23458,9.69,73022.8,4.73,-26.13,-26.49,0,*7A
1515236740.76,23459,9.69,73020.3,4.77,-26.71,-27.03,0,*74
1515236742.01,23460,9.69,73020.5,4.77,-26.29,-26.71,0,*77
1515236743.26,23461,9.69,73020.5,4.75,-27.07,-27.45,0,*7F
1515236744.51,23462,9.69,73018.3,4.75,-27.07,-27.45,0,*7C
1515236745.74,23463,9.69,73016.5,4.77,-26.49,-26.81,0,*7D
1515236747.0,23464,9.69,73020.0,4.75,-27.07,-27.35,0,*7D
1515236748.26,23465,9.69,73020.3,4.75,-26.93,-27.07,0,*71
1515236749.51,23466,9.69,73016.5,4.75,-26.45,-26.77,0,*7F
1515236750.76,23467,9.69,73022.3,4.75,-27.45,-27.77,0,*7E
1515236751.98,23468,9.69,73022.0,4.75,-27.51,-27.93,0,*7E
1515236753.27,23469,9.69,73018.8,4.75,-26.97,-27.35,0,*78
1515236754.52,23470,9.69,73016.8,4.75,-26.45,-26.77,0,*78
1515236755.74,23471,9.69,73018.5,4.75,-26.87,-27.07,0,*71
1515236757.03,23472,9.69,73018.5,4.75,-26.97,-27.35,0,*72
1515236758.28,23473,9.69,73018.5,4.75,-26.93,-27.13,0,*73
1515236759.54,23474,9.69,73020.8,4.75,-26.81,-27.07,0,*72
1515236760.79,23475,9.69,73016.8,4.75,-26.93,-27.07,0,*70
1515236762.01,23476,9.69,73020.0,4.77,-26.45,-26.71,0,*7A
1515236763.27,23477,9.69,73018.5,4.77,-26.29,-26.55,0,*77
1515236764.49,23478,9.75,73020.8,4.77,-25.75,-25.91,0,*79
1515236765.77,23479,9.69,73018.3,4.75,-25.75,-26.13,0,*73
1515236767.0,23480,9.69,73020.0,4.79,-25.87,-26.07,0,*71
1515236768.2,23481,9.69,73016.5,4.81,-25.65,-25.87,0,*70
1515236769.45,23482,9.69,73016.3,4.81,-26.33,-26.55,0,*7F
1515236770.69,23483,9.69,73022.0,4.79,-26.65,-27.03,0,*78
1515236771.92,23484,9.69,73018.8,4.81,-27.55,-27.99,0,*79
1515236773.14,23485,9.69,73020.5,4.79,-26.87,-27.07,0,*76
1515236774.39,23486,9.69,73018.3,4.79,-26.49,-26.71,0,*77
1515236775.62,23487,9.69,73018.8,4.81,-26.07,-26.33,0,*7D
1515236776.83,23488,9.69,73020.5,4.81,-25.87,-26.03,0,*7A
1515236778.05,23489,9.69,73018.3,4.85,-25.87,-26.17,0,*7A
1515236779.28,23490,9.69,73016.3,4.85,-25.91,-26.29,0,*78
1515236780.48,23491,9.69,73016.5,4.85,-26.03,-26.45,0,*7B
1515236781.76,23492,9.69,73020.0,4.87,-25.81,-26.17,0,*74
1515236782.98,23493,9.69,73022.3,4.85,-26.29,-26.61,0,*77
1515236784.23,23494,9.69,73018.8,4.85,-26.93,-27.45,0,*76
1515236785.46,23495,9.69,73018.0,4.85,-26.93,-27.03,0,*75
1515236786.7,23496,9.69,73022.0,4.87,-26.13,-26.49,0,*73
1515236787.93,23497,9.69,73018.3,4.87,-26.45,-26.65,0,*7F
1515236789.16,23498,9.69,73018.3,4.89,-25.87,-26.29,0,*7B
1515236790.44,23499,9.69,73022.3,4.87,-25.97,-26.33,0,*7E
1515236791.69,23500,9.69,73020.3,4.87,-26.33,-26.65,0,*71
1515236792.94,23501,9.69,73020.5,4.87,-25.91,-26.13,0,*7A
1515236794.2,23502,9.69,73020.3,4.91,-25.71,-26.07,0,*75
1515236795.45,23503,9.69,73020.5,4.91,-26.33,-26.65,0,*75
1515236796.73,23504,9.69,73020.5,4.91,-26.93,-27.35,0,*7C
1515236797.95,23505,9.69,73022.0,4.91,-27.51,-27.89,0,*75
1515236799.17,23506,9.69,73020.5,4.89,-27.39,-27.77,0,*70
1515236800.39,23507,9.69,73020.5,4.89,-27.39,-27.89,0,*70
1515236801.65,23508,9.69,73020.5,4.89,-26.97,-27.39,0,*71
1515236802.89,23509,9.69,73020.3,4.87,-27.19,-27.51,0,*77
1515236804.11,23510,9.69,73022.8,4.89,-27.39,-27.71,0,*71
1515236805.34,23511,9.69,73020.5,4.85,-27.67,-28.09,0,*77
1515236806.59,23512,9.69,73022.0,4.87,-27.35,-27.67,0,*76
1515236807.79,23513,9.75,73024.0,4.85,-27.29,-27.77,0,*79
1515236809.07,23514,9.75,73026.0,4.87,-27.45,-27.83,0,*7D
1515236810.34,23515,9.69,73022.8,4.87,-27.19,-27.61,0,*79
1515236811.54,23516,9.69,73022.8,4.85,-27.03,-27.51,0,*70
1515236812.76,23517,9.69,73024.0,4.85,-27.13,-27.45,0,*75
1515236814.01,23518,9.69,73020.3,4.85,-27.45,-27.83,0,*73
1515236815.23,23519,9.69,73024.5,4.85,-27.51,-27.99,0,*7C
1515236816.48,23520,9.69,73022.8,4.85,-27.45,-27.83,0,*78
1515236817.69,23521,9.75,73024.3,4.85,-27.03,-27.29,0,*7B
1515236818.94,23522,9.69,73016.8,4.81,-26.81,-27.23,0,*7D
1515236820.16,23523,9.69,73020.5,4.81,-26.71,-27.03,0,*71
1515236821.42,23524,9.69,73022.3,4.81,-26.33,-26.55,0,*72
1515236822.62,23525,9.69,73018.3,4.81,-26.07,-26.39,0,*7E
1515236823.82,23526,9.69,73020.0,4.85,-26.49,-26.65,0,*7A
1515236825.05,23527,9.75,73024.5,4.85,-26.49,-26.77,0,*78
1515236826.29,23528,9.69,73024.0,4.85,-26.65,-26.97,0,*77
1515236827.52,23529,9.69,73024.5,4.85,-26.65,-26.97,0,*76
1515236828.72,23530,9.69,73022.0,4.85,-26.45,-26.65,0,*71
1515236829.97,23531,9.69,73020.3,4.87,-26.49,-26.81,0,*74
1515236831.22,23532,9.69,73022.3,4.85,-26.77,-27.19,0,*78
1515236832.5,23533,9.69,73020.3,4.87,-27.19,-27.61,0,*7D
1515236833.75,23534,9.69,73022.3,4.85,-26.81,-27.19,0,*77
1515236834.98,23535,9.75,73024.3,4.85,-26.49,-26.81,0,*72
1515236836.23,23536,9.69,73024.3,4.85,-26.77,-26.93,0,*7F
1515236837.46,23537,9.75,73026.3,4.87,-27.03,-27.51,0,*71
1515236838.67,23538,9.69,73024.0,4.89,-26.71,-27.13,0,*72
1515236839.93,23539,9.69,73024.0,4.85,-26.93,-27.35,0,*77
1515236841.21,23540,9.75,73026.3,4.87,-26.97,-27.35,0,*7F
1515236842.43,23541,9.75,73024.5,4.85,-27.51,-27.83,0,*7A
1515236843.65,23542,9.69,73024.5,4.85,-27.13,-27.45,0,*75
1515236844.89,23543,9.69,73022.3,4.87,-27.29,-27.67,0,*7F
1515236846.12,23544,9.69,73020.8,4.85,-27.61,-27.93,0,*7D
1515236847.31,23545,9.69,73022.0,4.85,-28.15,-28.53,0,*73
1515236848.51,23546,9.69,73022.5,4.81,-27.89,-28.37,0,*7C
1515236849.76,23547,9.69,73022.8,4.79,-27.35,-27.71,0,*70
1515236850.96,23548,9.69,73022.5,4.81,-27.03,-27.51,0,*7F
1515236852.21,23549,9.69,73026.3,4.81,-27.39,-27.83,0,*78
1515236853.44,23550,9.75,73024.0,4.81,-27.89,-28.25,0,*78
1515236854.69,23551,9.69,73022.8,4.79,-27.23,-27.67,0,*77
1515236855.94,23552,9.75,73028.5,4.79,-27.39,-27.89,0,*7F
1515236857.2,23553,9.69,73024.3,4.79,-28.21,-28.53,0,*70
1515236858.46,23554,9.69,73020.3,4.77,-28.91,-29.35,0,*73
1515236859.68,23555,9.69,73020.3,4.77,-28.31,-28.79,0,*71
1515236860.9,23556,9.69,73022.3,4.75,-27.13,-27.51,0,*7A
1515236862.18,23557,9.69,73022.0,4.75,-26.97,-27.45,0,*73
1515236863.46,23558,9.75,73022.3,4.75,-26.77,-26.97,0,*7C
1515236864.66,23559,9.69,73022.5,4.77,-27.13,-27.55,0,*73
1515236865.86,23560,9.75,73022.8,4.77,-27.55,-27.93,0,*71
1515236867.15,23561,9.75,73024.3,4.75,-27.61,-27.99,0,*7F
1515236868.4,23562,9.69,73020.3,4.75,-27.67,-28.09,0,*7C
1515236869.65,23563,9.69,73020.3,4.75,-27.99,-28.37,0,*71
1515236870.88,23564,9.69,73022.5,4.75,-27.77,-28.15,0,*76
1515236872.11,23565,9.75,73022.8,4.73,-27.51,-27.99,0,*7E
1515236873.32,23566,9.69,73020.5,4.73,-27.77,-28.15,0,*72
1515236874.55,23567,9.69,73020.3,4.73,-27.61,-27.93,0,*75
1515236875.77,23568,9.69,73020.0,4.73,-27.45,-27.77,0,*76
1515236877.01,23569,9.69,73020.3,4.73,-27.35,-27.83,0,*7B
1515236878.21,23570,9.69,73020.3,4.73,-27.51,-27.93,0,*70
1515236879.47,23571,9.69,73018.8,4.73,-27.61,-28.09,0,*7E
1515236880.67,23572,9.69,73020.0,4.73,-27.29,-27.77,0,*77
1515236881.89,23573,9.69,73020.8,4.73,-27.13,-27.61,0,*78
1515236883.12,23574,9.69,73020.5,4.73,-27.61,-27.93,0,*77
1515236884.35,23575,9.69,73020.3,4.73,-27.51,-27.83,0,*74
1515236885.57,23576,9.75,73022.8,4.73,-27.19,-27.67,0,*71
1515236886.8,23577,9.75,73020.3,4.73,-26.97,-27.07,0,*71
1515236888.05,23578,9.75,73020.3,4.73,-26.93,-27.19,0,*75
1515236889.3,23579,9.69,73020.3,4.73,-26.97,-27.45,0,*79
1515236890.5,23580,9.69,73016.0,4.73,-27.07,-27.51,0,*72
1515236891.76,23581,9.75,73022.0,4.73,-26.97,-27.19,0,*77
1515236893.01,23582,9.69,73018.3,4.73,-26.97,-27.35,0,*7A
1515236894.23,23583,9.69,73020.5,4.73,-27.13,-27.45,0,*71
1515236895.49,23584,9.75,73020.0,4.73,-26.81,-26.97,0,*72
1515236896.72,23585,9.75,73020.5,4.73,-26.77,-27.07,0,*72
1515236897.97,23586,9.75,73018.0,4.73,-26.93,-27.19,0,*74
1515236899.19,23587,9.69,73016.5,4.73,-26.29,-26.61,0,*7A
1515236900.45,23588,9.75,73020.3,4.73,-25.97,-26.17,0,*72
1515236901.65,23589,9.69,73016.3,4.77,-25.61,-25.91,0,*73
1515236902.85,23590,9.69,73016.3,4.77,-25.61,-25.91,0,*7B
1515236904.1,23591,9.75,73016.0,4.79,-25.81,-26.03,0,*72
1515236905.31,23592,9.75,73018.0,4.77,-26.03,-26.23,0,*74
1515236906.54,23593,9.69,73014.5,4.81,-26.33,-26.65,0,*7D
1515236907.82,23594,9.69,73018.3,4.79,-26.33,-26.55,0,*7E
1515236909.04,23595,9.69,73016.5,4.81,-26.55,-26.87,0,*77
1515236910.32,23596,9.69,73018.8,4.79,-26.71,-26.97,0,*74
1515236911.58,23597,9.69,73016.5,4.81,-26.97,-27.35,0,*73